N6OIL Weather Reports


Display with metric or nautical units.
time (UTC)temp
F
wind
direction
speed
MPH
gust
MPH
rain 1hr
in
rain 24hr
in
rain mn
in
humidity
%
barometer
mb
20260505021705 56 40 7.0 14.0 0.00 0.00 0.00 49 1012.2
20260505021204 56 30 7.0 16.0 0.00 0.00 0.00 48 1012.2
20260505020704 56 30 8.0 17.0 0.00 0.00 0.00 47 1012.2
20260505020205 56 41 9.0 17.0 0.00 0.00 0.00 47 1012.2
20260505015704 56 42 9.0 17.0 0.00 0.00 0.00 47 1012.2
20260505015204 56 25 9.0 19.0 0.00 0.00 0.00 46 1012.2
20260505014704 56 24 11.0 19.0 0.00 0.00 0.00 46 1012.3
20260505013205 58 13 10.0 21.0 0.00 0.00 0.00 44 1012.2
20260505012704 57 51 12.0 21.0 0.00 0.00 0.00 44 1012.2
20260505012204 58 40 11.0 19.0 0.00 0.00 0.00 43 1012.2
20260505011704 58 23 10.0 19.0 0.00 0.00 0.00 42 1012.2
20260505011204 59 57 10.0 18.0 0.00 0.00 0.00 40 1012.2
20260505010205 60 34 10.0 27.0 0.00 0.00 0.00 38 1012.2
20260505005704 60 57 10.0 27.0 0.00 0.00 0.00 36 1012.2
20260505005205 60 88 11.0 15.0 0.00 0.00 0.00 37 1011.9
20260505004204 61 57 9.0 17.0 0.00 0.00 0.00 36 1012.0
20260505003705 61 83 9.0 17.0 0.00 0.00 0.00 37 1012.0
20260505003204 61 70 8.0 18.0 0.00 0.00 0.00 36 1012.0
20260505002704 61 70 9.0 18.0 0.00 0.00 0.00 37 1012.0
20260505002204 62 59 9.0 15.0 0.00 0.00 0.00 36 1012.0
20260505001704 62 55 9.0 15.0 0.00 0.00 0.00 36 1011.8
20260505001204 62 90 9.0 15.0 0.00 0.00 0.00 36 1011.6
20260505000706 62 65 9.0 19.0 0.00 0.00 0.00 35 1011.8
20260505000204 63 38 9.0 19.0 0.00 0.00 0.00 35 1011.8
20260504235705 63 72 9.0 19.0 0.00 0.00 0.00 35 1011.6
20260504235204 63 57 9.0 16.0 0.00 0.00 0.00 35 1011.6
20260504234704 63 59 9.0 16.0 0.00 0.00 0.00 34 1011.6
20260504234204 63 88 7.0 16.0 0.00 0.00 0.00 35 1011.6
20260504233704 61 103 7.0 16.0 0.00 0.00 0.00 40 1011.8
20260504232205 60 313 11.0 17.0 0.00 0.00 0.00 44 1011.8
20260504231704 60 271 11.0 17.0 0.00 0.00 0.00 44 1011.8
20260504231205 61 288 11.0 16.0 0.00 0.00 0.00 44 1011.9
20260504230204 61 317 12.0 19.0 0.00 0.00 0.00 44 1011.6
20260504225705 62 275 13.0 19.0 0.00 0.00 0.00 42 1011.8
20260504225204 62 280 12.0 19.0 0.00 0.00 0.00 41 1011.8
20260504224704 62 296 12.0 19.0 0.00 0.00 0.00 43 1011.6
20260504224204 61 275 12.0 19.0 0.00 0.00 0.00 44 1011.8
20260504223704 60 271 13.0 19.0 0.00 0.00 0.00 43 1011.9
20260504223204 61 336 13.0 19.0 0.00 0.00 0.00 43 1012.0
20260504222205 61 282 11.0 18.0 0.00 0.00 0.00 43 1012.1
20260504221704 61 342 11.0 21.0 0.00 0.00 0.00 43 1012.1
20260504221206 60 294 12.0 21.0 0.00 0.00 0.00 44 1012.1
20260504220704 60 309 12.0 21.0 0.00 0.00 0.00 44 1012.2
20260504220204 61 305 12.0 20.0 0.00 0.00 0.00 43 1012.2
20260504215704 61 303 12.0 20.0 0.00 0.00 0.00 43 1012.3
20260504215206 61 300 12.0 22.0 0.00 0.00 0.00 43 1012.3
20260504214704 61 333 13.0 22.0 0.00 0.00 0.00 42 1012.2
20260504213205 61 311 13.0 22.0 0.00 0.00 0.00 43 1012.4
20260504212704 62 275 13.0 22.0 0.00 0.00 0.00 44 1012.3
20260504212205 62 297 13.0 22.0 0.00 0.00 0.00 44 1012.3
20260504211704 62 321 14.0 21.0 0.00 0.00 0.00 44 1012.4
20260504210704 61 302 13.0 17.0 0.00 0.00 0.00 44 1012.4
20260504210204 61 328 11.0 19.0 0.00 0.00 0.00 44 1012.4
20260504205704 61 310 13.0 21.0 0.00 0.00 0.00 45 1012.6
20260504205206 62 266 14.0 21.0 0.00 0.00 0.00 44 1012.5
20260504204204 61 307 14.0 21.0 0.00 0.00 0.00 45 1012.5
20260504203704 61 290 12.0 21.0 0.00 0.00 0.00 45 1012.5
20260504202704 61 302 11.0 19.0 0.00 0.00 0.00 46 1012.5
20260504201704 61 319 10.0 19.0 0.00 0.00 0.00 46 1012.5
20260504200704 60 328 13.0 20.0 0.00 0.00 0.00 47 1012.8
20260504200204 60 320 11.0 20.0 0.00 0.00 0.00 48 1012.6
20260504195704 60 286 11.0 19.0 0.00 0.00 0.00 48 1012.6
20260504195206 59 342 11.0 19.0 0.00 0.00 0.00 48 1012.8
20260504194704 60 290 11.0 18.0 0.00 0.00 0.00 48 1012.9
20260504194204 59 320 11.0 20.0 0.00 0.00 0.00 48 1012.9
20260504193206 60 315 12.0 20.0 0.00 0.00 0.00 49 1012.6
20260504192704 60 267 12.0 18.0 0.00 0.00 0.00 49 1012.6
20260504192204 59 307 11.0 18.0 0.00 0.00 0.00 50 1012.8
20260504191704 58 311 11.0 18.0 0.00 0.00 0.00 51 1012.9
20260504191205 58 274 12.0 19.0 0.00 0.00 0.00 51 1012.9
20260504190704 58 307 12.0 20.0 0.00 0.00 0.00 52 1013.0
20260504190204 58 270 12.0 20.0 0.00 0.00 0.00 52 1012.9
20260504185704 58 271 13.0 19.0 0.00 0.00 0.00 52 1012.9
20260504185206 58 315 13.0 19.0 0.00 0.00 0.00 53 1013.0
20260504184704 57 288 13.0 19.0 0.00 0.00 0.00 54 1013.0
20260504184204 57 282 13.0 22.0 0.00 0.00 0.00 54 1013.1
20260504183206 56 312 14.0 21.0 0.00 0.00 0.00 55 1013.1
20260504182204 56 300 13.0 19.0 0.00 0.00 0.00 55 1013.2
20260504181704 56 306 13.0 19.0 0.00 0.00 0.00 55 1013.3
20260504181205 56 293 12.0 17.0 0.00 0.00 0.00 55 1013.3
20260504180704 56 323 11.0 18.0 0.00 0.00 0.00 55 1013.3
20260504180204 57 292 11.0 18.0 0.00 0.00 0.00 54 1013.3
20260504175704 56 288 11.0 16.0 0.00 0.00 0.00 54 1013.2
20260504174705 56 315 9.0 17.0 0.00 0.00 0.00 53 1013.3
20260504174204 56 327 10.0 17.0 0.00 0.00 0.00 54 1013.3
20260504173204 56 303 9.0 16.0 0.00 0.00 0.00 54 1013.1
20260504172704 56 314 11.0 17.0 0.00 0.00 0.00 55 1013.2
20260504172204 55 320 11.0 17.0 0.00 0.00 0.00 56 1013.3
20260504171704 55 304 11.0 16.0 0.00 0.00 0.00 56 1013.3
20260504170704 55 320 10.0 16.0 0.00 0.00 0.00 55 1013.3
20260504170204 55 298 10.0 14.0 0.00 0.00 0.00 54 1013.3
20260504160204 52 321 10.0 18.0 0.00 0.00 0.00 58 1013.2
20260504150705 50 315 11.0 17.0 0.00 0.00 0.00 65 1012.9
20260504141205 46 304 10.0 16.0 0.00 0.00 0.00 73 1012.9
20260504140704 46 327 9.0 15.0 0.00 0.00 0.00 75 1013.0
20260504130204 45 346 11.0 19.0 0.00 0.00 0.00 80 1012.5
20260504120204 45 322 11.0 18.0 0.00 0.00 0.00 81 1012.3
20260504110704 46 307 11.0 16.0 0.00 0.00 0.00 79 1012.2
20260504110204 46 312 10.0 14.0 0.00 0.00 0.00 78 1012.3
20260504100206 48 324 11.0 18.0 0.00 0.00 0.00 69 1012.4
20260504081704 50 324 12.0 21.0 0.00 0.00 0.00 64 1012.9
20260504081204 50 331 13.0 21.0 0.00 0.00 0.00 63 1012.8
20260504060205 52 12 6.0 10.0 0.00 0.00 0.00 62 1012.3
20260504050704 53 334 14.0 24.0 0.00 0.00 0.00 62 1012.0
20260504050204 53 327 14.0 20.0 0.00 0.00 0.00 62 1012.0
20260504045706 53 344 13.0 23.0 0.00 0.00 0.00 62 1012.0
20260504045204 53 353 14.0 23.0 0.00 0.00 0.00 61 1012.0
20260504044705 54 343 15.0 22.0 0.00 0.00 0.00 60 1012.0
20260504044204 54 317 14.0 23.0 0.00 0.00 0.00 59 1012.0
20260504043704 54 332 15.0 23.0 0.00 0.00 0.00 59 1011.9
20260504043205 54 329 15.0 25.0 0.00 0.00 0.00 58 1011.8
20260504042704 54 332 16.0 25.0 0.00 0.00 0.00 58 1011.6
20260504042204 54 344 16.0 27.0 0.00 0.00 0.00 58 1011.5
20260504041704 54 327 15.0 27.0 0.00 0.00 0.00 58 1011.5
20260504041204 54 348 16.0 27.0 0.00 0.00 0.00 58 1011.5
20260504040703 55 335 16.0 22.0 0.00 0.00 0.00 57 1011.3
20260504040204 55 313 15.0 22.0 0.00 0.00 0.00 56 1011.4
20260504035704 55 336 15.0 22.0 0.00 0.00 0.00 56 1011.3
20260504034704 55 313 12.0 23.0 0.00 0.00 0.00 55 1011.1
20260504034204 55 307 13.0 24.0 0.00 0.00 0.00 54 1010.8
20260504033704 55 312 15.0 24.0 0.00 0.00 0.00 54 1010.9
20260504033204 55 309 15.0 24.0 0.00 0.00 0.00 55 1011.0
20260504032704 55 331 15.0 27.0 0.00 0.00 0.00 56 1010.8
20260504032204 56 321 16.0 27.0 0.00 0.00 0.00 56 1010.8
20260504031704 56 306 15.0 27.0 0.00 0.00 0.00 57 1010.8
20260504031204 56 316 14.0 27.0 0.00 0.00 0.00 57 1010.5
20260504030704 56 321 15.0 27.0 0.00 0.00 0.00 57 1010.7
20260504030204 56 309 17.0 27.0 0.00 0.00 0.00 57 1010.4
20260504025704 56 298 17.0 27.0 0.00 0.00 0.00 57 1010.3
20260504025204 56 279 17.0 29.0 0.00 0.00 0.00 57 1010.2
20260504024704 56 319 17.0 29.0 0.00 0.00 0.00 57 1010.1
20260504024204 57 311 17.0 29.0 0.00 0.00 0.00 57 1010.1
20260504023704 57 319 16.0 28.0 0.00 0.00 0.00 57 1009.9
20260504023204 57 311 18.0 28.0 0.00 0.00 0.00 57 1010.0
20260504022704 58 325 19.0 28.0 0.00 0.00 0.00 56 1010.0
20260504022205 58 325 18.0 27.0 0.00 0.00 0.00 55 1009.9